Regional Weather Roundup
Issued by NWS

Home | Current Version | Previous Version | Text Only | Print | Product List | Glossary On
Versions: 1 2 3 4 5 6 7 8 9 10 11 12 13 14 15 16 17 18 19 20 21 22 23 24 25 26 27 28 29 30 31 32 33 34 35 36 37 38 39 40 41 42 43 44 45 46 47 48 49 50
000
ASUS45 KBOI 040110
RWRID

IDAHO REGIONAL WEATHER ROUNDUP
NATIONAL WEATHER SERVICE BOISE ID
700 PM MDT THU SEP 03 2015

NOTE: "FAIR" INDICATES FEW OR NO CLOUDS BELOW 12000 FEET
WITH NO SIGNIFICANT WEATHER AND/OR OBSTRUCTIONS TO VISIBILITY

IDZ012-014-040200-
SOUTHWEST IDAHO


CITY           SKY/WX    TMP DP  RH WIND       PRES   REMARKS
BOISE          PTSUNNY   68  36  30 NW14      29.84F
CALDWELL       PTSUNNY   70  36  28 N8        29.87F
MOUNTAIN HOME  MOSUNNY   68  40  35 NW22      29.82S
$$

IDZ016-017-040200-
SOUTHCENTRAL IDAHO


CITY           SKY/WX    TMP DP  RH WIND       PRES   REMARKS
BURLEY         MOSUNNY   69  44  40 W12       29.81F
JEROME         MOSUNNY   66  40  38 SW13      29.84R
TWIN FALLS     MOSUNNY   69  40  34 W12       29.85R
$$

IDZ019>023-040200-
SOUTHEAST IDAHO


CITY           SKY/WX    TMP DP  RH WIND       PRES   REMARKS
IDAHO FALLS    PTSUNNY   74  37  26 SW9       29.81S
POCATELLO      LGT RAIN  73  41  31 SW25G32   29.85R
REXBURG        PTCLDY    77  33  20 SW7       29.81S
$$

IDZ006-010-011-018-031-032-040200-
CENTRAL IDAHO MOUNTAINS


CITY           SKY/WX    TMP DP  RH WIND       PRES   REMARKS
MCCALL         SUNNY     54  40  59 SW6       29.93F
HAILEY         MOSUNNY   66  37  34 CALM      29.86F
STANLEY          N/A     57  34  41 VRB7      29.97R
SALMON         CLOUDY    57  41  54 N12G17    29.89R
CHALLIS        PTSUNNY   72  28  19 SW14G24   29.82R
$$

IDZ002-004-006-007-026-040200-
NORTHERN IDAHO


CITY           SKY/WX    TMP DP  RH WIND       PRES   REMARKS
LEWISTON       PTSUNNY   64  39  39 E3        29.93S
LOWELL           N/A     56  53  90 CALM      29.98S
COEUR D`ALENE  PTSUNNY   63  28  27 SW9       29.92S
MULLAN PASS    CLOUDY    43  37  79 VRB3      29.99S
$$


USA.gov is the U.S. government's official web portal to all federal, state and local government web resources and services.